Weather History for KBMQ - November, 2012

Change the Weather History Date:

Thursday, November 29, 2012

  Actual Average Record
Temperature  
Mean Temperature 54 °F -  
Max Temperature 68 °F 61 °F 77 °F (1998)
Min Temperature 41 °F 43 °F 26 °F (2001)
Degree Days  
Heating Degree Days 10    
Growing Degree Days 4 (Base 50)    
Moisture  
Dew Point 46 °F    
Average Humidity 70    
Maximum Humidity 89    
Minimum Humidity 55    
Precipitation  
Precipitation 0.00 in - - ()
Sea Level Pressure  
Sea Level Pressure 30.20 in    
Wind  
Wind Speed 3 mph (South)    
Max Wind Speed 10 mph    
Max Gust Speed -    
Visibility 10 miles    
Events      
Averages and records for this station are not official NWS values.
T = Trace of Precipitation, MM = Missing Value Source: NWS Daily Summary

Daily Weather History Graph

Daily Weather History Graph

Search for Another Location

Airport or City:

Trip Planner

Search our weather history database for the weather conditions in past years. The results will help you decide how hot, cold, wet, or windy it might be!

Date:

Astronomy

Nov. 29, 2012 Rise Set
Actual Time 7:11 AM CST 5:31 PM CST
Civil Twilight 6:45 AM CST 5:57 PM CST
Nautical Twilight 6:15 AM CST 6:27 PM CST
Astronomical Twilight 5:46 AM CST 6:56 PM CST
Moon 6:35 PM CST (11/29) 7:59 AM CST (11/29)
Length of Visible Light 11h 11m
Length of Day
10h 19m
Full, 99% of the Moon is Illuminated
Nov 29
Full
Dec 6
Last Quarter
Dec 13
New
Dec 19
First Quarter
Dec 28
Full

Hourly Weather History & Observations

Time (CST) Temp. Dew Point Humidity Pressure Visibility Wind Dir Wind Speed Gust Speed Precip Events Conditions
12:53 AM 42.1 °F 37.0 °F 82% 30.27 in 10.0 mi Calm Calm - N/A   Clear
1:53 AM 43.0 °F 37.0 °F 80% 30.27 in 10.0 mi Calm Calm - N/A   Clear
2:53 AM 43.0 °F 37.0 °F 80% 30.25 in 10.0 mi Calm Calm - N/A   Clear
3:53 AM 43.0 °F 37.9 °F 82% 30.24 in 10.0 mi Calm Calm - N/A   Clear
4:53 AM 43.0 °F 37.9 °F 82% 30.23 in 10.0 mi Calm Calm - N/A   Clear
6:53 AM 41.0 °F 37.9 °F 89% 30.25 in 7.0 mi Calm Calm - N/A   Clear
7:53 AM 43.0 °F 37.9 °F 82% 30.26 in 7.0 mi Calm Calm - N/A   Clear
8:53 AM 48.0 °F 43.0 °F 83% 30.26 in 6.0 mi South 6.9 mph - N/A   Haze
9:53 AM 55.0 °F 44.1 °F 67% 30.26 in 10.0 mi South 8.1 mph - N/A   Clear
10:53 AM 61.0 °F 46.9 °F 60% 30.25 in 10.0 mi SSW 9.2 mph - N/A   Clear
11:53 AM 62.1 °F 48.0 °F 60% 30.22 in 10.0 mi South 9.2 mph - N/A   Clear
12:53 PM 66.0 °F 50.0 °F 56% 30.19 in 10.0 mi South 6.9 mph - N/A   Partly Cloudy
1:53 PM 66.0 °F 51.1 °F 59% 30.16 in 10.0 mi South 9.2 mph - N/A   Scattered Clouds
2:53 PM 68.0 °F 51.1 °F 55% 30.13 in 10.0 mi South 10.4 mph - N/A   Scattered Clouds
3:53 PM 66.9 °F 51.1 °F 57% 30.13 in 10.0 mi SSW 10.4 mph - N/A   Overcast
4:53 PM 66.9 °F 52.0 °F 59% 30.13 in 10.0 mi South 6.9 mph - N/A   Overcast
5:53 PM 66.0 °F 52.0 °F 60% 30.15 in 10.0 mi South 6.9 mph - N/A   Overcast
6:53 PM 64.9 °F 52.0 °F 63% 30.16 in 10.0 mi South 5.8 mph - N/A   Overcast
7:53 PM 64.0 °F 52.0 °F 65% 30.17 in 10.0 mi South 5.8 mph - N/A   Overcast
8:53 PM 64.0 °F 52.0 °F 65% 30.16 in 10.0 mi South 5.8 mph - N/A   Overcast
9:53 PM 61.0 °F 52.0 °F 72% 30.15 in 8.0 mi South 3.5 mph - N/A   Partly Cloudy
10:53 PM 59.0 °F 51.1 °F 75% 30.14 in 10.0 mi Calm Calm - N/A   Clear
11:53 PM 55.9 °F 51.1 °F 84% 30.15 in 10.0 mi SW 4.6 mph - N/A   Clear